| time (UTC) | temp C | wind direction | speed KPH | gust KPH | rain 1hr cm | rain 24hr cm | rain mn cm | humidity % | barometer mb |
| 20260504150630 | 22 | 250 | 11.3 | 20.9 | 0.00 | 0.00 | 0.00 | 36 | 998.8 |
| 20260504150127 | 22 | 239 | 14.5 | 16.1 | 0.00 | 0.00 | 0.00 | 37 | 999.0 |
| 20260504141055 | 20 | 244 | 17.7 | 20.9 | 0.00 | 0.00 | 0.00 | 40 | 999.4 |
| 20260504140552 | 20 | 231 | 11.3 | 14.5 | 0.00 | 0.00 | 0.00 | 41 | 999.5 |
| 20260504130516 | 16 | 272 | 4.8 | 4.8 | 0.00 | 0.00 | 0.00 | 51 | 999.9 |
| 20260504110403 | 7 | 203 | 0.0 | 0.0 | 0.00 | 0.00 | 0.00 | 73 | 1000.7 |
| 20260504100320 | 8 | 205 | 0.0 | 0.0 | 0.00 | 0.00 | 0.00 | 69 | 1001.2 |
| 20260504081714 | 8 | 191 | 0.0 | 0.0 | 0.00 | 0.00 | 0.00 | 64 | 1002.4 |
| 20260504081210 | 8 | 164 | 1.6 | 1.6 | 0.00 | 0.00 | 0.00 | 64 | 1002.5 |
| 20260504080707 | 8 | 160 | 1.6 | 1.6 | 0.00 | 0.00 | 0.00 | 65 | 1002.6 |
| 20260504080203 | 8 | 185 | 0.0 | 0.0 | 0.00 | 0.00 | 0.00 | 64 | 1002.6 |
| 20260504070131 | 10 | 164 | 1.6 | 1.6 | 0.00 | 0.00 | 0.00 | 62 | 1003.4 |
| 20260504050520 | 7 | 127 | 0.0 | 0.0 | 0.00 | 0.00 | 0.00 | 86 | 1004.7 |
| 20260504050017 | 7 | 136 | 0.0 | 1.6 | 0.00 | 0.00 | 0.00 | 85 | 1004.9 |
| 20260504045513 | 7 | 143 | 0.0 | 0.0 | 0.00 | 0.00 | 0.00 | 85 | 1004.9 |
| 20260504045009 | 7 | 141 | 0.0 | 0.0 | 0.00 | 0.00 | 0.00 | 84 | 1004.9 |
| 20260504044507 | 7 | 161 | 0.0 | 0.0 | 0.00 | 0.00 | 0.00 | 83 | 1005.1 |
| 20260504044003 | 7 | 169 | 1.6 | 1.6 | 0.00 | 0.00 | 0.00 | 84 | 1005.0 |
| 20260504043500 | 8 | 143 | 0.0 | 1.6 | 0.00 | 0.00 | 0.00 | 86 | 1005.2 |
| 20260504042958 | 7 | 140 | 0.0 | 0.0 | 0.00 | 0.00 | 0.00 | 84 | 1005.4 |
| 20260504042454 | 7 | 152 | 0.0 | 0.0 | 0.00 | 0.00 | 0.00 | 82 | 1005.5 |
| 20260504041951 | 7 | 155 | 0.0 | 1.6 | 0.00 | 0.00 | 0.00 | 82 | 1005.2 |
| 20260504041448 | 8 | 185 | 0.0 | 0.0 | 0.00 | 0.00 | 0.00 | 81 | 1005.3 |
| 20260504040943 | 8 | 182 | 0.0 | 0.0 | 0.00 | 0.00 | 0.00 | 81 | 1005.5 |
| 20260504040441 | 7 | 179 | 0.0 | 1.6 | 0.00 | 0.00 | 0.00 | 80 | 1005.3 |
| 20260504035937 | 8 | 192 | 0.0 | 0.0 | 0.00 | 0.00 | 0.00 | 79 | 1005.5 |
| 20260504035435 | 8 | 192 | 0.0 | 0.0 | 0.00 | 0.00 | 0.00 | 78 | 1005.8 |
| 20260504034931 | 8 | 180 | 0.0 | 0.0 | 0.00 | 0.00 | 0.00 | 77 | 1005.7 |
| 20260504034429 | 8 | 185 | 0.0 | 0.0 | 0.00 | 0.00 | 0.00 | 79 | 1005.7 |
| 20260504033926 | 8 | 185 | 0.0 | 0.0 | 0.00 | 0.00 | 0.00 | 80 | 1005.8 |
| 20260504033423 | 8 | 191 | 0.0 | 0.0 | 0.00 | 0.00 | 0.00 | 78 | 1005.8 |
| 20260504032920 | 8 | 205 | 0.0 | 0.0 | 0.00 | 0.00 | 0.00 | 74 | 1006.0 |
| 20260504032417 | 9 | 198 | 0.0 | 0.0 | 0.00 | 0.00 | 0.00 | 73 | 1005.9 |
| 20260504031914 | 10 | 156 | 0.0 | 0.0 | 0.00 | 0.00 | 0.00 | 72 | 1006.0 |
| 20260504031411 | 10 | 161 | 0.0 | 0.0 | 0.00 | 0.00 | 0.00 | 69 | 1006.2 |
| 20260504030908 | 10 | 165 | 0.0 | 0.0 | 0.00 | 0.00 | 0.00 | 65 | 1006.2 |
| 20260504030405 | 10 | 165 | 0.0 | 0.0 | 0.00 | 0.00 | 0.00 | 61 | 1006.0 |
| 20260504025900 | 11 | 165 | 0.0 | 0.0 | 0.00 | 0.00 | 0.00 | 60 | 1006.1 |
| 20260504025358 | 11 | 165 | 0.0 | 0.0 | 0.00 | 0.00 | 0.00 | 57 | 1006.1 |
| 20260504024854 | 12 | 165 | 0.0 | 0.0 | 0.00 | 0.00 | 0.00 | 52 | 1006.0 |
| 20260504024351 | 13 | 165 | 0.0 | 0.0 | 0.00 | 0.00 | 0.00 | 50 | 1006.2 |
| 20260504023848 | 13 | 165 | 0.0 | 0.0 | 0.00 | 0.00 | 0.00 | 48 | 1006.2 |
| 20260504023345 | 14 | 201 | 0.0 | 0.0 | 0.00 | 0.00 | 0.00 | 44 | 1006.0 |
| 20260504022840 | 14 | 234 | 0.0 | 1.6 | 0.00 | 0.00 | 0.00 | 44 | 1006.1 |
| 20260504022337 | 13 | 238 | 0.0 | 1.6 | 0.00 | 0.00 | 0.00 | 44 | 1005.9 |
| 20260504021833 | 13 | 228 | 0.0 | 0.0 | 0.00 | 0.00 | 0.00 | 45 | 1006.0 |
| 20260504021331 | 14 | 238 | 0.0 | 0.0 | 0.00 | 0.00 | 0.00 | 46 | 1006.1 |
| 20260504020828 | 14 | 233 | 0.0 | 0.0 | 0.00 | 0.00 | 0.00 | 45 | 1006.2 |
| 20260504020325 | 14 | 237 | 0.0 | 0.0 | 0.00 | 0.00 | 0.00 | 45 | 1006.1 |
| 20260504015820 | 15 | 236 | 0.0 | 0.0 | 0.00 | 0.00 | 0.00 | 45 | 1006.1 |
| 20260504015317 | 15 | 228 | 0.0 | 0.0 | 0.00 | 0.00 | 0.00 | 43 | 1005.8 |
| 20260504014814 | 16 | 229 | 0.0 | 0.0 | 0.00 | 0.00 | 0.00 | 41 | 1006.2 |
| 20260504014309 | 16 | 244 | 0.0 | 0.0 | 0.00 | 0.00 | 0.00 | 39 | 1006.1 |
| 20260504013808 | 16 | 240 | 0.0 | 0.0 | 0.00 | 0.00 | 0.00 | 39 | 1006.0 |
| 20260504013305 | 17 | 230 | 0.0 | 0.0 | 0.00 | 0.00 | 0.00 | 36 | 1006.0 |
| 20260504012801 | 17 | 263 | 1.6 | 1.6 | 0.00 | 0.00 | 0.00 | 35 | 1006.1 |
| 20260504012259 | 18 | 270 | 0.0 | 1.6 | 0.00 | 0.00 | 0.00 | 34 | 1005.9 |
| 20260504011756 | 18 | 262 | 1.6 | 3.2 | 0.00 | 0.00 | 0.00 | 33 | 1005.8 |
| 20260504011253 | 19 | 279 | 3.2 | 3.2 | 0.00 | 0.00 | 0.00 | 33 | 1005.8 |
| 20260504010749 | 19 | 277 | 4.8 | 4.8 | 0.00 | 0.00 | 0.00 | 32 | 1005.9 |
| 20260504010244 | 19 | 268 | 9.7 | 12.9 | 0.00 | 0.00 | 0.00 | 32 | 1006.0 |
| 20260504005741 | 20 | 355 | 4.8 | 4.8 | 0.00 | 0.00 | 0.00 | 31 | 1005.7 |
| 20260504005238 | 20 | 280 | 1.6 | 3.2 | 0.00 | 0.00 | 0.00 | 31 | 1006.1 |
| 20260504004736 | 20 | 276 | 8.0 | 9.7 | 0.00 | 0.00 | 0.00 | 30 | 1005.8 |
| 20260504004233 | 20 | 293 | 3.2 | 3.2 | 0.00 | 0.00 | 0.00 | 30 | 1005.7 |
| 20260504003729 | 21 | 286 | 4.8 | 4.8 | 0.00 | 0.00 | 0.00 | 30 | 1005.8 |
| 20260504003226 | 21 | 276 | 9.7 | 12.9 | 0.00 | 0.00 | 0.00 | 29 | 1005.8 |
| 20260504002723 | 21 | 302 | 12.9 | 16.1 | 0.00 | 0.00 | 0.00 | 29 | 1005.8 |
| 20260504002220 | 21 | 277 | 11.3 | 14.5 | 0.00 | 0.00 | 0.00 | 29 | 1005.9 |
| 20260504001718 | 21 | 345 | 6.4 | 9.7 | 0.00 | 0.00 | 0.00 | 30 | 1005.8 |
| 20260504001215 | 21 | 267 | 14.5 | 16.1 | 0.00 | 0.00 | 0.00 | 28 | 1005.4 |
| 20260504000711 | 21 | 297 | 8.0 | 9.7 | 0.00 | 0.00 | 0.00 | 29 | 1005.5 |
| 20260504000208 | 21 | 268 | 8.0 | 9.7 | 0.00 | 0.00 | 0.00 | 28 | 1005.7 |
| 20260503235707 | 21 | 259 | 6.4 | 8.0 | 0.00 | 0.00 | 0.00 | 29 | 1005.7 |
| 20260503235203 | 22 | 304 | 6.4 | 8.0 | 0.00 | 0.00 | 0.00 | 29 | 1005.4 |
| 20260503234701 | 22 | 315 | 9.7 | 11.3 | 0.00 | 0.00 | 0.00 | 28 | 1005.8 |
| 20260503234159 | 22 | 285 | 4.8 | 8.0 | 0.00 | 0.00 | 0.00 | 28 | 1005.6 |
| 20260503233655 | 22 | 293 | 9.7 | 11.3 | 0.00 | 0.00 | 0.00 | 27 | 1005.5 |
| 20260503233151 | 22 | 268 | 9.7 | 12.9 | 0.00 | 0.00 | 0.00 | 27 | 1005.5 |
| 20260503232648 | 22 | 302 | 6.4 | 8.0 | 0.00 | 0.00 | 0.00 | 27 | 1005.5 |
| 20260503232145 | 22 | 279 | 8.0 | 9.7 | 0.00 | 0.00 | 0.00 | 28 | 1005.8 |
| 20260503231644 | 22 | 320 | 11.3 | 16.1 | 0.00 | 0.00 | 0.00 | 25 | 1005.4 |
| 20260503231140 | 22 | 275 | 4.8 | 4.8 | 0.00 | 0.00 | 0.00 | 27 | 1005.4 |
| 20260503230637 | 22 | 319 | 8.0 | 11.3 | 0.00 | 0.00 | 0.00 | 27 | 1005.6 |
| 20260503230134 | 22 | 317 | 8.0 | 9.7 | 0.00 | 0.00 | 0.00 | 27 | 1005.7 |
| 20260503225631 | 22 | 316 | 9.7 | 11.3 | 0.00 | 0.00 | 0.00 | 26 | 1005.5 |
| 20260503225131 | 22 | 301 | 8.0 | 12.9 | 0.00 | 0.00 | 0.00 | 25 | 1005.6 |
| 20260503224629 | 22 | 302 | 19.3 | 24.1 | 0.00 | 0.00 | 0.00 | 24 | 1005.4 |
| 20260503224126 | 22 | 323 | 8.0 | 11.3 | 0.00 | 0.00 | 0.00 | 28 | 1005.7 |
| 20260503223624 | 22 | 283 | 11.3 | 14.5 | 0.00 | 0.00 | 0.00 | 26 | 1005.5 |
| 20260503223120 | 22 | 10 | 8.0 | 9.7 | 0.00 | 0.00 | 0.00 | 27 | 1005.3 |
| 20260503222618 | 22 | 338 | 4.8 | 4.8 | 0.00 | 0.00 | 0.00 | 29 | 1005.4 |
| 20260503222115 | 22 | 324 | 16.1 | 20.9 | 0.00 | 0.00 | 0.00 | 25 | 1005.4 |
| 20260503221613 | 22 | 302 | 6.4 | 9.7 | 0.00 | 0.00 | 0.00 | 26 | 1005.5 |
| 20260503221111 | 22 | 316 | 11.3 | 12.9 | 0.00 | 0.00 | 0.00 | 27 | 1005.5 |
| 20260503220607 | 23 | 285 | 9.7 | 11.3 | 0.00 | 0.00 | 0.00 | 27 | 1005.7 |
| 20260503220104 | 22 | 257 | 6.4 | 8.0 | 0.00 | 0.00 | 0.00 | 26 | 1005.5 |
| 20260503215601 | 22 | 328 | 14.5 | 17.7 | 0.00 | 0.00 | 0.00 | 25 | 1005.5 |
| 20260503215057 | 22 | 27 | 8.0 | 11.3 | 0.00 | 0.00 | 0.00 | 26 | 1005.7 |
| 20260503214556 | 22 | 266 | 11.3 | 14.5 | 0.00 | 0.00 | 0.00 | 27 | 1005.7 |
| 20260503214052 | 22 | 283 | 22.5 | 25.7 | 0.00 | 0.00 | 0.00 | 24 | 1005.6 |
| 20260503213551 | 22 | 320 | 14.5 | 16.1 | 0.00 | 0.00 | 0.00 | 26 | 1005.6 |
| 20260503213047 | 22 | 355 | 16.1 | 22.5 | 0.00 | 0.00 | 0.00 | 28 | 1005.7 |
| 20260503212544 | 23 | 312 | 11.3 | 14.5 | 0.00 | 0.00 | 0.00 | 26 | 1005.7 |
| 20260503212042 | 23 | 297 | 8.0 | 12.9 | 0.00 | 0.00 | 0.00 | 27 | 1005.7 |
| 20260503211539 | 22 | 0 | 8.0 | 9.7 | 0.00 | 0.00 | 0.00 | 29 | 1005.6 |
| 20260503211034 | 22 | 318 | 11.3 | 12.9 | 0.00 | 0.00 | 0.00 | 26 | 1005.7 |
| 20260503210531 | 23 | 278 | 14.5 | 16.1 | 0.00 | 0.00 | 0.00 | 28 | 1005.7 |
| 20260503210027 | 22 | 288 | 9.7 | 12.9 | 0.00 | 0.00 | 0.00 | 27 | 1005.7 |
| 20260503205524 | 23 | 354 | 9.7 | 11.3 | 0.00 | 0.00 | 0.00 | 28 | 1005.6 |
| 20260503205020 | 23 | 330 | 16.1 | 20.9 | 0.00 | 0.00 | 0.00 | 26 | 1005.6 |
| 20260503204517 | 23 | 72 | 6.4 | 9.7 | 0.00 | 0.00 | 0.00 | 30 | 1005.7 |
| 20260503204014 | 23 | 330 | 16.1 | 20.9 | 0.00 | 0.00 | 0.00 | 27 | 1005.8 |
| 20260503203512 | 22 | 284 | 9.7 | 11.3 | 0.00 | 0.00 | 0.00 | 28 | 1005.8 |
| 20260503203009 | 23 | 300 | 8.0 | 11.3 | 0.00 | 0.00 | 0.00 | 27 | 1005.7 |
| 20260503202506 | 23 | 343 | 12.9 | 17.7 | 0.00 | 0.00 | 0.00 | 28 | 1005.9 |
| 20260503202004 | 23 | 327 | 4.8 | 8.0 | 0.00 | 0.00 | 0.00 | 28 | 1005.8 |
| 20260503201502 | 23 | 27 | 9.7 | 12.9 | 0.00 | 0.00 | 0.00 | 27 | 1005.7 |
| 20260503200959 | 23 | 334 | 11.3 | 12.9 | 0.00 | 0.00 | 0.00 | 26 | 1005.9 |
| 20260503200455 | 23 | 346 | 8.0 | 11.3 | 0.00 | 0.00 | 0.00 | 30 | 1006.0 |
| 20260503195952 | 23 | 287 | 9.7 | 11.3 | 0.00 | 0.00 | 0.00 | 29 | 1005.7 |
| 20260503195449 | 22 | 343 | 11.3 | 12.9 | 0.00 | 0.00 | 0.00 | 28 | 1005.7 |
| 20260503194945 | 23 | 256 | 6.4 | 8.0 | 0.00 | 0.00 | 0.00 | 31 | 1006.0 |
| 20260503194443 | 22 | 19 | 4.8 | 4.8 | 0.00 | 0.00 | 0.00 | 31 | 1005.9 |
| 20260503193938 | 22 | 324 | 17.7 | 24.1 | 0.00 | 0.00 | 0.00 | 28 | 1005.8 |
| 20260503193434 | 22 | 316 | 16.1 | 20.9 | 0.00 | 0.00 | 0.00 | 31 | 1006.2 |
| 20260503192929 | 22 | 307 | 16.1 | 24.1 | 0.00 | 0.00 | 0.00 | 29 | 1005.9 |
| 20260503192426 | 22 | 353 | 6.4 | 8.0 | 0.00 | 0.00 | 0.00 | 33 | 1006.0 |
| 20260503191921 | 22 | 331 | 12.9 | 20.9 | 0.00 | 0.00 | 0.00 | 31 | 1006.1 |
| 20260503191420 | 22 | 308 | 11.3 | 12.9 | 0.00 | 0.00 | 0.00 | 33 | 1006.2 |
| 20260503190915 | 22 | 359 | 8.0 | 12.9 | 0.00 | 0.00 | 0.00 | 38 | 1006.0 |
| 20260503190413 | 22 | 337 | 22.5 | 27.4 | 0.00 | 0.00 | 0.00 | 32 | 1006.0 |
| 20260503185909 | 22 | 342 | 9.7 | 11.3 | 0.00 | 0.00 | 0.00 | 34 | 1006.2 |
| 20260503185406 | 22 | 303 | 14.5 | 20.9 | 0.00 | 0.00 | 0.00 | 35 | 1006.2 |
| 20260503184905 | 22 | 300 | 14.5 | 17.7 | 0.00 | 0.00 | 0.00 | 34 | 1006.2 |
| 20260503184402 | 22 | 35 | 9.7 | 12.9 | 0.00 | 0.00 | 0.00 | 37 | 1006.1 |
| 20260503183858 | 21 | 356 | 9.7 | 9.7 | 0.00 | 0.00 | 0.00 | 36 | 1006.1 |
| 20260503183355 | 21 | 317 | 14.5 | 16.1 | 0.00 | 0.00 | 0.00 | 36 | 1006.1 |
| 20260503182853 | 21 | 328 | 24.1 | 29.0 | 0.00 | 0.00 | 0.00 | 35 | 1006.2 |
| 20260503182351 | 21 | 297 | 11.3 | 14.5 | 0.00 | 0.00 | 0.00 | 37 | 1006.3 |
| 20260503181848 | 21 | 17 | 8.0 | 11.3 | 0.00 | 0.00 | 0.00 | 40 | 1006.0 |
| 20260503181345 | 21 | 315 | 9.7 | 12.9 | 0.00 | 0.00 | 0.00 | 38 | 1006.3 |
| 20260503180842 | 21 | 351 | 11.3 | 12.9 | 0.00 | 0.00 | 0.00 | 38 | 1006.3 |
| 20260503180340 | 21 | 354 | 22.5 | 25.7 | 0.00 | 0.00 | 0.00 | 35 | 1006.6 |
| 20260503175836 | 21 | 356 | 14.5 | 20.9 | 0.00 | 0.00 | 0.00 | 36 | 1006.6 |
| 20260503175334 | 21 | 321 | 19.3 | 25.7 | 0.00 | 0.00 | 0.00 | 35 | 1006.2 |
| 20260503174829 | 21 | 305 | 14.5 | 22.5 | 0.00 | 0.00 | 0.00 | 38 | 1006.4 |
| 20260503174328 | 21 | 1 | 9.7 | 16.1 | 0.00 | 0.00 | 0.00 | 41 | 1006.3 |
| 20260503173823 | 21 | 312 | 24.1 | 32.2 | 0.00 | 0.00 | 0.00 | 38 | 1006.4 |
| 20260503173319 | 21 | 265 | 6.4 | 8.0 | 0.00 | 0.00 | 0.00 | 40 | 1006.4 |
| 20260503172816 | 21 | 6 | 12.9 | 16.1 | 0.00 | 0.00 | 0.00 | 40 | 1006.2 |
| 20260503172314 | 21 | 340 | 9.7 | 14.5 | 0.00 | 0.00 | 0.00 | 42 | 1006.3 |
| 20260503171810 | 21 | 0 | 8.0 | 9.7 | 0.00 | 0.00 | 0.00 | 43 | 1006.3 |
| 20260503171306 | 20 | 342 | 17.7 | 20.9 | 0.00 | 0.00 | 0.00 | 40 | 1006.4 |
| 20260503170804 | 21 | 343 | 12.9 | 14.5 | 0.00 | 0.00 | 0.00 | 41 | 1006.6 |
| 20260503170300 | 20 | 336 | 16.1 | 17.7 | 0.00 | 0.00 | 0.00 | 40 | 1006.4 |